USGS - science for a changing world

Kansas Water Science Center

Jump to content

Jump back to navigation

Current Streamflow Conditions

Welcome to the U.S. Geological Survey (USGS) Web page for the water resources of Kansas. Here you'll find information on Kansas's rivers and streams. You'll also find information about groundwater, water quality, and many other topics. The USGS operates the most extensive satellite network of stream-gaging stations in the state, many of which form the backbone of flood-warning systems.

The Kansas Water Science Center provides current ("real-time") stream stage in Kansas and streamflow, water-quality, and groundwater levels for over 200 sites.
The USGS provides National ("real-time") stream stage and streamflow, water-quality, and groundwater levels for over 7000 sites.

Of Current Interest

Press Release: Human Activity Alters Streamflow throughout Kansas

Water-level and recoverable water in storage changes, High Plains aquifer, predevelopment to 2015 and 2013-2015.

USGS Fact Sheet: Summary of hydrologic conditions in Kansas, water year 2016

Press Release: 20 Years Researching Harmful Algal Blooms Supports Sustainable Water Supply in Wichita

USGS WaterAlert Service Turn Around Don't Drown

Now you can receive instant, customized updates about water conditions by subscribing to WaterAlert, a new service from the U.S. Geological Survey. WaterAlert allows you to receive daily or hourly updates about current conditions in rivers, lakes and groundwater when they match conditions of concern to you.

Kansas Lake Report

Kansas Lake Report

Highlighted Publications

The Kansas Water Science Center produces publications about water resources.   Search our publications

Kansas Earthquakes - Last 30 days

  1. 2.7 28km NE of Buffalo, Oklahoma 2017-07-25 21:55:32 CDT
  2. 2.8 5km E of Harper, Kansas 2017-07-24 19:43:13 CDT
  3. 2.9 26km NE of Buffalo, Oklahoma 2017-07-23 20:59:00 CDT
  4. 1.63 17km SE of Anthony, Kansas 2017-07-23 01:40:23 CDT
  5. 1.62 5km S of Harper, Kansas 2017-07-22 15:20:01 CDT
  6. 2.7 25km ENE of Buffalo, Oklahoma 2017-07-21 14:39:38 CDT
  7. 2.9 24km NE of Buffalo, Oklahoma 2017-07-21 06:58:59 CDT
  8. 2.5 11km SSE of Anthony, Kansas 2017-07-20 14:49:06 CDT
  9. 2.5 18km SSE of Anthony, Kansas 2017-07-19 14:46:02 CDT
  10. 1.59 16km W of Caldwell, Kansas 2017-07-19 10:45:09 CDT
  11. 1.75 9km SSE of Anthony, Kansas 2017-07-19 01:17:55 CDT
  12. 1.7 13km ESE of Harper, Kansas 2017-07-18 12:41:19 CDT
  13. 1.61 10km SSE of Anthony, Kansas 2017-07-18 09:13:00 CDT
  14. 2.2 9km SSE of Anthony, Kansas 2017-07-18 08:55:42 CDT
  15. 1.86 9km SSE of Anthony, Kansas 2017-07-18 01:30:57 CDT
  16. 2.47 13km ESE of Harper, Kansas 2017-07-17 02:24:42 CDT
  17. 1.89 7km SSW of Anthony, Kansas 2017-07-13 09:54:54 CDT
  18. 1.98 22km SSW of Conway Springs, Kansas 2017-07-12 12:41:30 CDT
  19. 2.16 7km SE of Harper, Kansas 2017-07-11 12:56:53 CDT
  20. 1.6 7km SE of Harper, Kansas 2017-07-11 12:49:38 CDT
  21. 3.3 6km SE of Harper, Kansas 2017-07-11 12:22:24 CDT
  22. 2.05 12km ESE of Anthony, Kansas 2017-07-11 02:41:40 CDT
  23. 2.4 9km WSW of Harper, Kansas 2017-07-08 00:08:16 CDT
  24. 1.75 8km SE of Harper, Kansas 2017-06-30 15:18:21 CDT
  25. 2.05 8km SE of Harper, Kansas 2017-06-30 15:18:10 CDT
07156900: Flow=9.38cfs,Stage=1.83ft,Floodstage=5ft,2017-07-26 20:00,Low,Cimarron River near Forgan, OK 06893300: Flow=120cfs,Stage=6.50ft,Floodstage=14ft,2017-07-26 20:15,>90,INDIAN C AT OVERLAND PARK, KS 07172000: Flow=0.00cfs,Stage=1.48ft,2017-07-26 21:00,<10,CANEY R NR ELGIN, KS 06824000: Flow=3.93cfs,Stage=0.26ft,2017-07-26 19:45,<10,Rock Creek at Parks, Nebr. 06911900: Flow=11.5cfs,Stage=8.01ft,Floodstage=19ft,2017-07-26 20:00,76-90,DRAGOON C NR BURLINGAME, KS 06893500: Flow=225cfs,Stage=5.18ft,Floodstage=34ft,2017-07-26 20:45,76-90,Blue River at Kansas City, MO 06893080: Flow=8.33cfs,Stage=3.63ft,Floodstage=16ft,2017-07-26 20:45,76-90,BLUE R NR STANLEY, KS 06891500: Flow=73.5cfs,Stage=5.05ft,Floodstage=23ft,2017-07-26 20:45,76-90,WAKARUSA R NR LAWRENCE, KS 06878000: Flow=55.5cfs,Stage=4.86ft,Floodstage=19ft,2017-07-26 20:45,76-90,CHAPMAN C NR CHAPMAN, KS 06867000: Flow=93.8cfs,Stage=5.90ft,Floodstage=18ft,2017-07-26 20:30,76-90,SALINE R NR RUSSELL, KS 07183500: Flow=112cfs,Stage=7.11ft,Floodstage=21ft,2017-07-26 20:00,10-24,NEOSHO R NR PARSONS, KS 07183000: Flow=67.8cfs,Stage=6.89ft,Floodstage=15ft,2017-07-26 20:30,10-24,NEOSHO R NR IOLA, KS 07182510: Flow=72.2cfs,Stage=5.85ft,Floodstage=27ft,2017-07-26 20:15,10-24,NEOSHO R AT BURLINGTON, KS 07151500: Flow=16.0cfs,Stage=1.99ft,Floodstage=10ft,2017-07-26 21:00,10-24,CHIKASKIA R NR CORBIN, KS 07145200: Flow=39.9cfs,Stage=3.48ft,Floodstage=8ft,2017-07-26 21:00,10-24,SF NINNESCAH R NR MURDOCK, KS 07144910: Flow=5.18cfs,Stage=2.40ft,Floodstage=9ft,2017-07-26 21:00,10-24,SF NINNESCAH R NR PRATT, KS 07144780: Flow=19.4cfs,Stage=5.91ft,2017-07-26 20:30,10-24,NF NINNESCAH R AB CHENEY RE, KS 07142575: Flow=4.36cfs,Stage=11.48ft,Floodstage=17ft,2017-07-26 20:45,10-24,RATTLESNAKE C NR ZENITH, KS 07142300: Flow=0.35cfs,Stage=3.04ft,Floodstage=9ft,2017-07-26 20:00,10-24,RATTLESNAKE C NR MACKSVILLE, KS 06884025: Flow=121cfs,Stage=2.20ft,Floodstage=19ft,2017-07-26 21:00,10-24,Little Blue River at Hollenberg, KS 06876000: Flow=43.7cfs,Stage=2.93ft,Floodstage=20ft,2017-07-26 20:45,10-24,SOLOMON R AT BELOIT, KS 06868200: Flow=13.1cfs,Stage=2.81ft,2017-07-26 20:45,10-24,SALINE R AT WILSON DAM, KS 06848500: Flow=0.00cfs,Stage=1.05ft,Floodstage=21ft,2017-07-26 20:30,10-24,PRAIRIE DOG C NR WOODRUFF, KS 06815000: Flow=52.1cfs,Stage=3.69ft,Floodstage=27ft,2017-07-26 20:45,10-24,Big Nemaha River at Falls City, Nebr. 07188000: Flow=1090cfs,Stage=6.82ft,Floodstage=20ft,2017-07-26 20:00,25-75,Spring River near Quapaw, OK 07186000: Flow=142cfs,Stage=1.68ft,Floodstage=19ft,2017-07-26 20:30,25-75,Spring River near Waco, MO 07184000: Flow=2.72cfs,Stage=0.88ft,Floodstage=12ft,2017-07-26 20:45,25-75,LIGHTNING C NR MCCUNE, KS 07182250: Flow=90.7cfs,Stage=2.63ft,Floodstage=32ft,2017-07-26 21:00,25-75,COTTONWOOD R NR PLYMOUTH, KS 07180500: Flow=13.7cfs,Stage=4.25ft,2017-07-26 20:15,25-75,CEDAR C NR CEDAR POINT, KS 07180400: Flow=61.6cfs,Stage=3.28ft,Floodstage=22ft,2017-07-26 20:15,25-75,COTTONWOOD R NR FLORENCE, KS 07179795: Flow=10.3cfs,Stage=4.84ft,2017-07-26 20:30,25-75,N COTTONWOOD R BL MARION LK, KS 07179730: Flow=38.1cfs,Stage=2.76ft,Floodstage=26ft,2017-07-26 20:15,25-75,NEOSHO R NR AMERICUS, KS 07179500: Flow=9.04cfs,Stage=8.03ft,2017-07-26 21:00,25-75,NEOSHO R AT COUNCIL GROVE, KS 07170500: Flow=148cfs,Stage=2.11ft,Floodstage=30ft,2017-07-26 21:00,25-75,VERDIGRIS R AT INDEPENDENCE, KS 07169800: Flow=11.1cfs,Stage=2.40ft,2017-07-26 21:00,25-75,ELK R AT ELK FALLS, KS 07169500: Flow=39.7cfs,Stage=3.04ft,Floodstage=17ft,2017-07-26 21:00,25-75,FALL R AT FREDONIA, KS 07167500: Flow=2.99cfs,Stage=1.34ft,2017-07-26 20:15,25-75,OTTER C AT CLIMAX, KS 07166500: Flow=29.4cfs,Stage=3.35ft,Floodstage=19ft,2017-07-26 20:45,25-75,VERDIGRIS R NR ALTOONA, KS 07157500: Flow=2.45cfs,Stage=2.13ft,Floodstage=6.5ft,2017-07-26 20:30,25-75,CROOKED C NR ENGLEWOOD, KS 07149000: Flow=14.0cfs,Stage=-0.09ft,Floodstage=10ft,2017-07-26 20:30,25-75,MEDICINE LODGE R NR KIOWA, KS 07147800: Flow=194cfs,Stage=1.62ft,Floodstage=18ft,2017-07-26 21:00,25-75,WALNUT R AT WINFIELD, KS 07147070: Flow=43.0cfs,Stage=1.90ft,2017-07-26 20:30,25-75,WHITEWATER R AT TOWANDA, KS 07146500: Flow=1090cfs,Stage=3.93ft,Floodstage=11ft,2017-07-26 21:00,25-75,ARKANSAS R AT ARKANSAS CITY, KS 07145700: Flow=1.73cfs,Stage=3.50ft,Floodstage=19ft,2017-07-26 21:00,25-75,SLATE C AT WELLINGTON, KS 07145500: Flow=153cfs,Stage=2.55ft,Floodstage=17ft,2017-07-26 21:00,25-75,NINNESCAH R NR PECK, KS 07144550: Flow=812cfs,Stage=2.04ft,Floodstage=12ft,2017-07-26 21:00,25-75,ARKANSAS R AT DERBY, KS 07144300: Flow=614cfs,Stage=4.08ft,2017-07-26 20:45,25-75,ARKANSAS R AT WICHITA, KS 07144200: Flow=50.3cfs,Stage=1.13ft,2017-07-26 20:00,25-75,L ARKANSAS R AT VALLEY CENTER, KS 07143665: Flow=7.65cfs,Stage=0.15ft,Floodstage=22ft,2017-07-26 20:15,25-75,L ARKANSAS R AT ALTA MILLS, KS 07143330: Flow=261cfs,Stage=2.51ft,Floodstage=10ft,2017-07-26 20:30,25-75,ARKANSAS R NR HUTCHINSON, KS 07143300: Flow=5.84cfs,Stage=4.06ft,Floodstage=18ft,2017-07-26 20:30,25-75,COW C NR LYONS, KS 07141900: Flow=0.01cfs,Stage=2.23ft,Floodstage=24ft,2017-07-26 20:45,25-75,WALNUT C AT ALBERT, KS 07141780: Flow=1.12cfs,Stage=6.17ft,Floodstage=29ft,2017-07-26 20:15,25-75,WALNUT C AT NEKOMA, KS 07141300: Flow=14.6cfs,Stage=1.29ft,Floodstage=12ft,2017-07-26 20:30,25-75,ARKANSAS R AT GREAT BEND, KS 07138000: Flow=416cfs,Stage=6.17ft,Floodstage=10ft,2017-07-26 20:15,25-75,ARKANSAS R AT SYRACUSE, KS 07137500: Flow=485cfs,Stage=4.67ft,Floodstage=8ft,2017-07-26 20:15,25-75,ARKANSAS R NR COOLIDGE, KS 07137000: Flow=35.3cfs,Stage=11.35ft,2017-07-26 20:45,25-75,FRONTIER DITCH NR COOLIDGE, KS 06917500: Flow=12.2cfs,Stage=7.15ft,Floodstage=38ft,2017-07-26 20:30,25-75,MARMATON R NR FORT SCOTT, KS 06917000: Flow=2.60cfs,Stage=2.96ft,Floodstage=22ft,2017-07-26 20:15,25-75,L OSAGE R AT FULTON, KS 06916600: Flow=242cfs,Stage=4.54ft,Floodstage=27ft,2017-07-26 20:45,25-75,MARAIS DES CYGNES R NR KS-MO ST LINE, KS 06915800: Flow=199cfs,Stage=4.53ft,Floodstage=25ft,2017-07-26 20:15,25-75,MARAIS DES CYGNES R AT LA CYGNE, KS 06915000: Flow=17.4cfs,Stage=2.12ft,2017-07-26 20:30,25-75,BIG BULL C NR HILLSDALE, KS 06913500: Flow=55.0cfs,Stage=3.67ft,Floodstage=31ft,2017-07-26 20:30,25-75,MARAIS DES CYGNES R NR OTTAWA, KS 06913000: Flow=47.2cfs,Stage=1.20ft,Floodstage=20ft,2017-07-26 20:30,25-75,MARAIS DES CYGNES R NR POMONA, KS 06912500: Flow=19.7cfs,Stage=2.74ft,2017-07-26 20:45,25-75,HUNDRED AND TEN MILE C NR QUENEMO, KS 06911000: Flow=20.4cfs,Stage=2.19ft,2017-07-26 20:45,25-75,MARAIS DES CYGNES R AT MELVERN, KS 06910800: Flow=5.52cfs,Stage=2.18ft,Floodstage=19ft,2017-07-26 20:45,25-75,MARAIS DES CYGNES R NR READING, KS 06893000: Flow=46100cfs,Stage=10.53ft,Floodstage=32ft,2017-07-26 20:30,25-75,Missouri River at Kansas City, MO 06892350: Flow=3110cfs,Stage=5.84ft,Floodstage=26ft,2017-07-26 20:45,25-75,KANSAS R AT DESOTO, KS 06892000: Flow=21.8cfs,Stage=2.13ft,Floodstage=23ft,2017-07-26 20:30,25-75,STRANGER C NR TONGANOXIE, KS 06891000: Flow=3340cfs,Stage=3.32ft,Floodstage=17ft,2017-07-26 20:30,25-75,KANSAS R AT LECOMPTON, KS 06890100: Flow=25.3cfs,Stage=2.49ft,Floodstage=27ft,2017-07-26 20:45,25-75,DELAWARE R NR MUSCOTAH, KS 06889500: Flow=25.7cfs,Stage=0.21ft,Floodstage=29ft,2017-07-26 21:00,25-75,SOLDIER C NR TOPEKA, KS 06889200: Flow=7.04cfs,Stage=6.53ft,Floodstage=26ft,2017-07-26 20:30,25-75,SOLDIER C NR DELIA, KS 06889000: Flow=3930cfs,Stage=6.72ft,Floodstage=26ft,2017-07-26 20:30,25-75,KANSAS R AT TOPEKA, KS 06888500: Flow=49.6cfs,Stage=2.77ft,Floodstage=21ft,2017-07-26 20:45,25-75,MILL C NR PAXICO, KS 06888350: Flow=3400cfs,Stage=7.38ft,Floodstage=20ft,2017-07-26 20:30,25-75,KANSAS R NR BELVUE, KS 06888000: Flow=11.5cfs,Stage=3.66ft,2017-07-26 20:45,25-75,VERMILLION C NR WAMEGO, KS 06887500: Flow=3610cfs,Stage=5.48ft,Floodstage=19ft,2017-07-26 20:30,25-75,KANSAS R AT WAMEGO, KS 06887000: Flow=1540cfs,Stage=3.10ft,Floodstage=19ft,2017-07-26 20:00,25-75,BIG BLUE R NR MANHATTAN, KS 06885500: Flow=25.1cfs,Stage=3.22ft,Floodstage=19ft,2017-07-26 20:30,25-75,BLACK VERMILLION R NR FRANKFORT, KS 06884400: Flow=295cfs,Stage=4.23ft,Floodstage=21ft,2017-07-26 20:30,25-75,L BLUE R NR BARNES, KS 06884200: Flow=14.5cfs,Stage=1.72ft,Floodstage=18ft,2017-07-26 20:45,25-75,MILL C AT WASHINGTON, KS 06882510: Flow=269cfs,Stage=11.87ft,Floodstage=35ft,2017-07-26 20:30,25-75,BIG BLUE R AT MARYSVILLE, KS 06882000: Flow=326cfs,Stage=4.08ft,Floodstage=20ft,2017-07-26 20:00,25-75,Big Blue River at Barneston, Nebr. 06879100: Flow=2100cfs,Stage=7.09ft,Floodstage=21ft,2017-07-26 20:30,25-75,KANSAS R AT FORT RILEY, KS 06877600: Flow=859cfs,Stage=7.72ft,Floodstage=26ft,2017-07-26 20:45,25-75,SMOKY HILL R AT ENTERPRISE, KS 06876900: Flow=200cfs,Stage=4.21ft,Floodstage=24ft,2017-07-26 20:30,25-75,SOLOMON R AT NILES, KS 06876700: Flow=33.4cfs,Stage=4.77ft,Floodstage=18ft,2017-07-26 20:45,25-75,SALT C NR ADA, KS 06875900: Flow=86.7cfs,Stage=8.19ft,Floodstage=21ft,2017-07-26 20:30,25-75,SOLOMON R NR GLEN ELDER, KS 06874000: Flow=48.9cfs,Stage=4.14ft,Floodstage=14ft,2017-07-26 20:30,25-75,SF SOLOMON R AT OSBORNE, KS 06873460: Flow=25.0cfs,Stage=4.91ft,Floodstage=12ft,2017-07-26 20:30,25-75,SF SOLOMON R AT WOODSTON, KS 06873000: Flow=14.8cfs,Stage=1.67ft,Floodstage=8.5ft,2017-07-26 20:15,25-75,SF SOLOMON R AB WEBSTER RE, KS 06872500: Flow=33.5cfs,Stage=3.86ft,Floodstage=15ft,2017-07-26 20:30,25-75,NF SOLOMON R AT PORTIS, KS 06871500: Flow=7.54cfs,Stage=3.44ft,Floodstage=9ft,2017-07-26 20:45,25-75,BOW C NR STOCKTON, KS 06871000: Flow=13.9cfs,Stage=2.85ft,Floodstage=11ft,2017-07-26 20:30,25-75,NF SOLOMON R AT GLADE, KS 06869500: Flow=73.3cfs,Stage=5.98ft,Floodstage=25ft,2017-07-26 20:30,25-75,SALINE R AT TESCOTT, KS 06866900: Flow=1.77cfs,Stage=2.16ft,Floodstage=13ft,2017-07-26 20:00,25-75,SALINE R NR WAKEENEY, KS 06866500: Flow=128cfs,Stage=4.49ft,Floodstage=20ft,2017-07-26 20:45,25-75,SMOKY HILL R NR MENTOR, KS 06866000: Flow=153cfs,Stage=7.11ft,Floodstage=21ft,2017-07-26 20:30,25-75,SMOKY HILL R AT LINDSBORG, KS 06865500: Flow=136cfs,Stage=3.71ft,2017-07-26 20:30,25-75,SMOKY HILL R NR LANGLEY, KS 06864500: Flow=64.1cfs,Stage=1.73ft,Floodstage=20ft,2017-07-26 20:30,25-75,SMOKY HILL R AT ELLSWORTH, KS 06864000: Flow=19.4cfs,Stage=3.44ft,Floodstage=18ft,2017-07-26 20:30,25-75,SMOKY HILL R NR RUSSELL, KS 06863500: Flow=12.3cfs,Stage=5.24ft,Floodstage=26ft,2017-07-26 20:30,25-75,BIG C NR HAYS, KS 06862700: Flow=0.84cfs,Stage=3.33ft,2017-07-26 20:30,25-75,SMOKY HILL R NR SCHOENCHEN, KS 06861000: Flow=0.90cfs,Stage=0.33ft,Floodstage=7ft,2017-07-26 20:30,25-75,SMOKY HILL R NR ARNOLD, KS 06860000: Flow=0.19cfs,Stage=3.97ft,Floodstage=9ft,2017-07-26 20:30,25-75,SMOKY HILL R AT ELKADER, KS 06857100: Flow=889cfs,Stage=6.58ft,2017-07-26 20:30,25-75,REPUBLICAN R AT JUNCTION CITY, KS 06856600: Flow=627cfs,Stage=8.01ft,Floodstage=15ft,2017-07-26 20:30,25-75,REPUBLICAN R AT CLAY CENTER, KS 06856000: Flow=356cfs,Stage=5.57ft,Floodstage=15ft,2017-07-26 20:30,25-75,REPUBLICAN R AT CONCORDIA, KS 06854500: Flow=309cfs,Stage=1.54ft,Floodstage=10ft,2017-07-26 20:15,25-75,REPUBLICAN R AT SCANDIA, KS 06853800: Flow=6.32cfs,Stage=1.64ft,Floodstage=16ft,2017-07-26 20:45,25-75,WHITE ROCK C NR BURR OAK, KS 06853500: Flow=169cfs,Stage=2.33ft,Floodstage=11ft,2017-07-26 20:30,25-75,REPUBLICAN R NR HARDY, NE 06852500: Flow=271cfs,Stage=2.59ft,2017-07-26 20:15,25-75,Courtland Canal at Nebraska-Kansas Stateline 06847900: Flow=1.17cfs,Stage=3.43ft,Floodstage=11ft,2017-07-26 20:45,25-75,PRAIRIE DOG C AB KEITH SEBELIUS LAKE, KS 06821500: Flow=1.00cfs,Stage=4.84ft,Floodstage=12ft,2017-07-26 19:30,25-75,Arikaree River at Haigler, Nebr. 06818000: Flow=44500cfs,Stage=8.42ft,Floodstage=17ft,2017-07-26 20:30,25-75,Missouri River at St. Joseph, MO 06814000: Flow=5.92cfs,Stage=1.01ft,Floodstage=21ft,2017-07-26 20:45,25-75,TURKEY C NR SENECA, KS 06813500: Flow=41600cfs,Stage=9.52ft,Floodstage=17ft,2017-07-26 20:30,25-75,Missouri River at Rulo, NE 385520094420000: Flow=15.4cfs,2013-07-17 23:45,Not ranked,INDIAN C AT COLLEGE BLVD, JOHNSON CO, KS 375350097262800: Stage=4.79ft,2017-07-26 20:00,Not ranked,L ARKANSAS R UPSTREAM OF ASR FAC NR SEDGWICK, KS 07187600: Flow=621cfs,Stage=3.30ft,Floodstage=14ft,2017-07-26 20:30,Not ranked,SPRING R NR BAXTER SPRINGS, KS 07186055: Flow=8.77cfs,Stage=5.39ft,2017-07-26 20:45,Not ranked,COW C NR SCAMMON, KS 07185090: Flow=1.12cfs,Stage=8.29ft,2017-07-26 20:15,Not ranked,Tar Creek near Commerce, OK 07185000: Stage=2.24ft,2017-07-26 20:30:00,Floodstage=15ft,Not ranked,Temporarily unavailable,Neosho River near Commerce, OK 07184500: Flow=5.86cfs,Stage=5.70ft,2017-07-26 20:00,Not ranked,LABETTE C NR OSWEGO, KS 07183300: Stage=11.29ft,Floodstage=29ft,2017-07-26 20:15,Not ranked,NEOSHO R NR ERIE, KS 07182395: Stage=-2.92ft,2017-07-26 21:00,Not ranked,NEOSHO R AT HARTFORD, KS 07182390: Flow=190cfs,Stage=1.05ft,Floodstage=22ft,2017-07-26 20:30,Not ranked,NEOSHO R AT NEOSHO RAPIDS, KS 07182260: Flow=98.8cfs,Stage=1.82ft,Floodstage=20ft,2017-07-26 20:30,Not ranked,COTTONWOOD R AT EMPORIA, KS 07182200: Flow=8.11cfs,Stage=6.65ft,2017-07-26 20:30,Not ranked,SF COTTONWOOD R NR BAZAAR, KS 07180200: Stage=5.06ft,2017-07-26 20:30,Not ranked,COTTONWOOD R AT MARION, KS 07179785: Flow=1.11cfs,Stage=9.42ft,2017-07-26 20:30,Not ranked,NF COTTONWOOD R NR DURHAM, KS 07179750: Flow=30.2cfs,Stage=3.40ft,2017-07-26 20:30,Not ranked,NEOSHO R AT BURLINGAME RD NR EMPORIA, KS 07179710: Stage=10.98ft,2017-07-26 20:00,Not ranked,NEOSHO R NR DUNLAP, KS 07179700: Flow=2.20cfs,Stage=9.28ft,2017-07-26 20:15,Not ranked,ROCK C NR DUNLAP, KS 07179300: Flow=6.16cfs,Stage=7.71ft,2017-07-26 20:45,Not ranked,NEOSHO R NR PARKERVILLE, KS 07170990: Flow=101cfs,Stage=2.95ft,2017-07-26 20:45,Not ranked,VERDIGRIS R AT COFFEYVILLE, KS 07170700: Stage=2.60ft,2017-07-26 20:00,Not ranked,BIG HILL C NR CHERRYVALE, KS 07165750: Flow=7.27cfs,Stage=6.75ft,2017-07-26 21:00,Not ranked,VERDIGRIS R NR VIRGIL, KS 07157940: Flow=0.14cfs,Stage=5.16ft,2017-07-26 21:00,Not ranked,BLUFF C NR BUTTERMILK, KS 07157740: Flow=1.59cfs,Stage=7.01ft,2017-07-26 20:15,Not ranked,CIMARRON R NR BUTTERMILK, KS 07148111: Flow=5.72cfs,Stage=4.15ft,2017-07-26 20:30,Not ranked,GROUSE C NR SILVERDALE, KS 07147900: Stage=3.10ft,Floodstage=18ft,2017-07-26 20:15,Not ranked,WALNUT R AT ARKANSAS CITY, KS 07147190: Stage=4.11ft,Floodstage=21ft,2017-07-26 20:15,Not ranked,WHITEWATER R AT AUGUSTA, KS 07146800: Flow=20.1cfs,Stage=5.89ft,Floodstage=21ft,2017-07-26 20:00,Not ranked,WB WALNUT R NR EL DORADO, KS 07145600: Flow=710cfs,Stage=7.92ft,Floodstage=17ft,2017-07-26 20:45,Not ranked,ARKANSAS R ON HWY 160 AT OXFORD, KS 07144795: Flow=0.43cfs,Stage=1.23ft,2015-11-12 10:00,Not ranked,NF NINNESCAH R AT CHENEY DAM, KS 07144790: Stage=1421.51ft,2017-07-26 20:00,Not ranked,CHENEY RE NR CHENEY, KS 07144570: Flow=541cfs,Stage=6.65ft,Floodstage=16.5ft,2017-07-26 20:15,Not ranked,ARKANSAS R AT MULVANE, KS 07144490: Flow=25.3cfs,Stage=7.76ft,2017-07-26 20:15,Not ranked,COWSKIN C AT KELLOGG ST, WICHITA, KS 07144486: Flow=0.02cfs,Stage=4.60ft,2017-07-26 21:00,Not ranked,CALFSKIN C AT 119TH ST, WICHITA, KS 07144480: Flow=3.22cfs,Stage=7.22ft,Floodstage=18ft,2017-07-26 20:30,Not ranked,COWSKIN C AT 119TH ST AT WICHITA, KS 07144470: Stage=10.79ft,2017-07-26 20:15,Not ranked,COWSKIN C AT 29TH ST NORTH OF WICHITA, KS 07144301: Flow=0.00cfs,Stage=6.49ft,2017-07-26 20:45,Not ranked,FLOODWAY AT ARKANSAS R AT WICHITA, KS 07144201: Flow=0.00cfs,Stage=2.58ft,2017-07-26 20:00,Not ranked,FLOODWAY AT L ARKANSAS R AT VALLEY CENTER, KS 07144100: Flow=43.1cfs,Stage=2.87ft,Floodstage=22ft,2017-07-26 20:15,Not ranked,L ARKANSAS R NR SEDGWICK, KS 07144050: Flow=4.56cfs,Stage=-1.01ft,Floodstage=19ft,2017-07-26 20:15,Not ranked,EMMA C AT SEDGWICK, KS 07143672: Flow=17.3cfs,Stage=5.78ft,Floodstage=25ft,2017-07-26 20:30,Not ranked,L ARKANSAS R AT HWY 50 NR HALSTEAD, KS 07143375: Flow=276cfs,Stage=5.45ft,2017-07-26 20:15,Not ranked,ARKANSAS R NR MAIZE, KS 07143310: Stage=1.70ft,Floodstage=9.5ft,2017-07-26 20:15,Not ranked,COW C NR HUTCHINSON, KS 07142680: Flow=162cfs,Stage=9.18ft,2017-07-26 20:00,Not ranked,ARKANSAS R NR NICKERSON, KS 07142019: Flow=16.4cfs,Stage=2.35ft,2017-07-26 21:00,Not ranked,CHEYENNE BOTTOMS DV NR GREAT BEND, KS 07141220: Flow=7.75cfs,Stage=4.17ft,2017-07-26 21:00,Not ranked,ARKANSAS R NR LARNED, KS 07141200: Flow=0.00cfs,Stage=5.97ft,Floodstage=31ft,2017-07-26 20:30,Not ranked,PAWNEE R AT ROZEL, KS 07141000: Flow=0.09cfs,Stage=3.59ft,2017-07-26 20:45,Not ranked,BUCKNER C AT HANSTON, KS 07140900: Flow=4.00cfs,Stage=2.80ft,2017-07-14 08:15,Not ranked,BUCKNER C NR JETMORE, KS 07140890: Flow=2.14cfs,Stage=3.08ft,2017-07-26 20:45,Not ranked,BUCKNER C BL HORSETHIEF RE NR JETMORE, KS 07140880: Stage=3.95ft,2017-07-26 20:15:00,Not ranked,Back Water,BUCKNER C AB HORSETHIEF RE NR JETMORE, KS 07140850: Flow=0.00cfs,Stage=2.21ft,Floodstage=30ft,2017-07-26 20:00,Not ranked,PAWNEE R NR BURDETT, KS 07139500: Stage=6.00ft,Floodstage=11ft,2017-07-26 20:00,Not ranked,ARKANSAS R AT DODGE CITY, KS 07139000: Flow=0.00cfs,Stage=5.23ft,Floodstage=10ft,2017-07-26 20:30,Not ranked,ARKANSAS R AT GARDEN CITY, KS 07138075: Flow=57.4cfs,Stage=3.18ft,2017-07-26 20:00,Not ranked,FARMERS DITCH NR DEERFIELD, KS 07138070: Flow=81.1cfs,Stage=7.39ft,Floodstage=14ft,2017-07-26 20:45,Not ranked,ARKANSAS R AT DEERFIELD, KS 07138064: Flow=12.5cfs,Stage=5.76ft,2017-07-26 20:15,Not ranked,SOUTHSIDE DITCH RETURN NR DEERFIELD, KS 07138063: Flow=38.8cfs,Stage=2.99ft,2017-07-26 20:00,Not ranked,SOUTHSIDE DITCH NR LAKIN, KS 07138050: Stage=5.13ft,2017-07-26 20:00:00,Not ranked,Equipment malfunction,AMAZON GREAT EASTERN DITCH NR LAKIN, KS 07138020: Flow=397cfs,Stage=7.93ft,2017-07-26 20:45,Not ranked,ARKANSAS R AT KENDALL, KS 07137010: Flow=0.36cfs,Stage=2.09ft,2017-07-26 20:45,Not ranked,FRONTIER DITCH RETURN NR COOLIDGE, KS 07134990: Flow=6.49cfs,Stage=2.97ft,2017-07-26 19:15,Not ranked,WILD HORSE CREEK ABOVE HOLLY, CO 06917630: Flow=0.00cfs,Stage=1.39ft,2017-07-26 20:15,Not ranked,East Drywood Creek at Prairie State Park 06917560: Flow=29.8cfs,Stage=2.20ft,Floodstage=25ft,2017-07-26 20:15,Not ranked,Marmaton River near Richards, MO 06917380: Flow=194cfs,2008-11-12 23:45,Not ranked,MARMATON R NR MARMATON, KS 06917240: Flow=0.39cfs,Stage=-0.76ft,2017-07-26 21:00,Not ranked,MARMATON R NR UNIONTOWN, KS 06914995: Stage=917.15ft,2017-07-26 20:30,Not ranked,HILLSDALE LK NR HILLSDALE, KS 06914990: Flow=1.07cfs,Stage=2.78ft,2017-07-26 20:30,Not ranked,L BULL C NR SPRING HILL, KS 06914950: Flow=2.90cfs,Stage=1.99ft,2017-07-26 21:00,Not ranked,BIG BULL C NR EDGERTON, KS 06914500: Flow=10.0cfs,Stage=5.49ft,Floodstage=23ft,2017-07-26 20:30,Not ranked,POTTAWATOMIE C AT LANE, KS 06914100: Flow=6.25cfs,Stage=3.02ft,Floodstage=23ft,2017-07-26 20:45,Not ranked,POTTAWATOMIE C NR SCIPIO, KS 06912490: Stage=974.77ft,2017-07-26 20:45,Not ranked,POMONA LK NR QUENEMO, KS 06911490: Flow=0.40cfs,Stage=0.65ft,Floodstage=10ft,2017-07-26 20:30,Not ranked,SALT C AT LYNDON, KS 06910997: Stage=1036.26ft,2017-07-26 20:30,Not ranked,MELVERN LK NR MELVERN, KS 06893578: Flow=129cfs,Stage=5.86ft,Floodstage=33ft,2017-07-26 20:30,Not ranked,Blue River at Stadium Drive in Kansas City, MO 06893562: Stage=4.62ft,2017-07-26 20:45,Not ranked,Brush Creek at Rockhill Road in Kansas City, MO 06893557: Flow=19.0cfs,Stage=35.90ft,Floodstage=47ft,2017-07-26 20:15,Not ranked,Brush Creek at Ward Parkway in Kansas City, MO 06893400: Stage=83.60ft,2017-07-26 20:30,Not ranked,Indian Creek at 103rd St in Kansas City, MO 06893390: Flow=187cfs,Stage=11.01ft,Floodstage=20ft,2017-07-26 20:30,Not ranked,INDIAN C AT STATE LINE RD, LEAWOOD, KS 06893350: Flow=174cfs,Stage=3.29ft,2017-07-26 20:15,Not ranked,TOMAHAWK C NR OVERLAND PARK, KS 06893150: Flow=67.8cfs,Stage=25.14ft,Floodstage=35ft,2017-07-26 21:00,Not ranked,Blue River at Blue Ridge Blvd Ext in KC, MO 06893100: Flow=13.6cfs,Stage=5.25ft,2017-07-26 20:30,Not ranked,BLUE R AT KENNETH RD, OVERLAND PARK, KS 06892950: Stage=11.11ft,Floodstage=33ft,2017-07-26 20:45,Not ranked,KANSAS R AT KANSAS CITY, KS 06892518: Flow=3230cfs,Stage=10.61ft,2017-07-26 20:45,Not ranked,KANSAS R NR LAKE QUIVIRA, KS 06892513: Flow=38.8cfs,Stage=48.88ft,2017-07-26 20:30,Not ranked,MILL C AT JOHNSON DRIVE, SHAWNEE, KS 06892495: Flow=20.8cfs,Stage=57.42ft,2017-07-26 20:45,Not ranked,CEDAR C NR DESOTO, KS 06892494: Stage=3.18ft,2017-07-26 21:00,Not ranked,CAMP C AT 95TH ST NR DESOTO, KS 06892493: Stage=76.84ft,2017-07-26 21:00,Not ranked,CEDAR C AT 95TH ST NR DESOTO, KS 06892360: Flow=10.4cfs,Stage=4.96ft,2017-07-26 20:30,Not ranked,KILL C AT 95TH ST NR DESOTO, KS 06891850: Flow=10.1cfs,Stage=2.22ft,Floodstage=17ft,2017-07-26 20:30,Not ranked,STRANGER C AT EASTON, KS 06891810: Flow=199cfs,2015-06-09 23:45,Not ranked,STRANGER C NR POTTER, KS 06891478: Stage=877.02ft,2017-07-26 20:00,Not ranked,CLINTON LK NR LAWRENCE, KS 06891260: Flow=12.6cfs,Stage=3.86ft,2017-07-26 20:30,Not ranked,WAKARUSA R NR RICHLAND, KS 06891200: Stage=3.11ft,Floodstage=15ft,2017-07-26 20:15,Not ranked,WAKARUSA R AT WAKARUSA, KS 06891080: Flow=3980cfs,Stage=-10.45ft,Floodstage=18ft,2017-07-26 20:45,Not ranked,KANSAS R AT LAWRENCE, KS 06890900: Stage=28.02ft,2017-07-26 20:30:00,Not ranked,Maintenance in progress,DELAWARE R AT PERRY, KS 06890898: Stage=892.78ft,2017-07-26 20:30,Not ranked,PERRY LK NR PERRY, KS 06889630: Flow=115cfs,Stage=5.81ft,Floodstage=24ft,2017-07-26 20:15,Not ranked,SHUNGANUNGA C AT TOPEKA, KS 06889585: Stage=5.46ft,Floodstage=15ft,2017-07-26 20:15,Not ranked,SHUNGANUNGA C AT GAGE BLVD, TOPEKA, KS 06888990: Flow=3430cfs,Stage=6.63ft,2017-07-26 20:30,Not ranked,KANSAS R AT TOPEKA WATER PLANT, KS 06888700: Stage=7.20ft,Floodstage=25ft,2017-07-26 20:30,Not ranked,CROSS C AT ROSSVILLE, KS 06888300: Flow=16.7cfs,Stage=8.57ft,Floodstage=27ft,2017-07-26 20:00,Not ranked,ROCK C NR LOUISVILLE, KS 06886900: Stage=1075.77ft,2017-07-26 20:00,Not ranked,TUTTLE C LK NR MANHATTAN, KS 06886850: Stage=4.93ft,2017-07-26 20:30,Not ranked,MILL C NR RILEY, KS 06886500: Flow=23.8cfs,Stage=1.04ft,Floodstage=16ft,2017-07-26 20:15,Not ranked,FANCY C AT WINKLER, KS 06884700: Stage=15.86ft,Floodstage=26ft,2017-07-26 20:15,Not ranked,BIG BLUE R AT BLUE RAPIDS, KS 06879820: Stage=6.97ft,Floodstage=18ft,2017-07-26 21:00,Not ranked,KANSAS R AT MANHATTAN, KS 06879815: Stage=2.60ft,2017-07-26 21:00,Not ranked,WILDCAT C AT SETH CHILDS RD, MANHATTAN, KS 06879810: Flow=5.70cfs,Stage=2.55ft,Floodstage=14ft,2017-07-26 20:15,Not ranked,WILDCAT C AT SCENIC DRIVE, MANHATTAN, KS 06879805: Stage=5.81ft,2017-07-26 20:00,Not ranked,WILDCAT C AT KEATS, KS 06879650: Flow=0.00cfs,Stage=2.06ft,2017-07-23 19:30,Not ranked,KINGS C NR MANHATTAN, KS 06878600: Flow=34.1cfs,Stage=5.78ft,Floodstage=21ft,2017-07-26 20:15,Not ranked,LYON C NR JUNCTION CITY, KS 06876440: Flow=99.0cfs,Stage=2.62ft,Floodstage=26ft,2017-07-26 20:15,Not ranked,SOLOMON R NR MINNEAPOLIS, KS 06876070: Stage=7.28ft,2017-07-26 20:15,Not ranked,SOLOMON R NR SIMPSON, KS 06870300: Flow=2.07cfs,Stage=19.69ft,2017-07-26 20:15,Not ranked,GYPSUM C NR GYPSUM, KS 06870200: Stage=6.12ft,Floodstage=27ft,2017-07-26 20:45,Not ranked,SMOKY HILL R AT NEW CAMBRIA, KS 06869950: Flow=0.06cfs,Stage=2.42ft,Floodstage=24ft,2017-07-26 20:00,Not ranked,MULBERRY C NR SALINA, KS 06868850: Flow=41.2cfs,Stage=11.21ft,Floodstage=30ft,2017-07-26 20:45,Not ranked,SALINE R AT LINCOLN, KS 06868100: Stage=1516.94ft,2017-07-26 20:30,Not ranked,WILSON LK NR WILSON, KS 06867500: Flow=0.79cfs,Stage=8.55ft,2017-07-26 20:30,Not ranked,PARADISE C NR PARADISE, KS 06865000: Stage=1466.41ft,2017-07-26 20:30,Not ranked,KANOPOLIS LK NR KANOPOLIS, KS 06864050: Flow=58.3cfs,2011-06-08 23:45,Not ranked,SMOKY HILL R NR BUNKER HILL, KS 06863420: Flow=0.33cfs,Stage=1.43ft,2017-07-26 20:15,Not ranked,BIG C NR ELLIS, KS 06863000: Flow=2.00cfs,Stage=1.19ft,2017-07-26 21:00,Not ranked,SMOKY HILL R AT PFEIFER, KS 06862850: Flow=0.00cfs,Stage=2.22ft,Floodstage=11ft,2017-07-26 20:00,Not ranked,SMOKY HILL R BL SCHOENCHEN, KS 06861500: Stage=2119.43ft,2017-07-26 20:15,Not ranked,CEDAR BLUFF RE NR ELLIS, KS 06860900: Flow=0.00cfs,Stage=7.01ft,2017-07-26 20:30,Not ranked,HACKBERRY C NR TREGO CENTER, KS 06857050: Stage=1143.81ft,2017-07-26 20:30,Not ranked,MILFORD LK NR JUNCTION CITY, KS 06855850: Flow=8.20cfs,Stage=4.16ft,2017-07-26 20:15,Not ranked,BUFFALO C 4 MI E OF JAMESTOWN, KS 06854000: Stage=-0.05ft,2017-07-26 20:45,Not ranked,WHITE ROCK C AT LOVEWELL, KS 06853020: Flow=49.6cfs,Stage=3.44ft,Floodstage=11ft,2017-07-26 20:30,Not ranked,Republican River at Guide Rock, Nebr. 06848000: Flow=0.08cfs,2002-09-30 23:00,Not ranked,PRAIRIE DOG C AT NORTON, KS 06846500: Flow=0.00cfs,Stage=2.78ft,Floodstage=16ft,2017-07-26 20:00,Not ranked,BEAVER C AT CEDAR BLUFFS, KS 06845110: Flow=0.50cfs,Stage=5.12ft,Floodstage=17ft,2017-07-26 20:30,Not ranked,SAPPA C NR LYLE, KS 06827500: Flow=0.00cfs,Stage=-0.77ft,Floodstage=9ft,2017-07-26 19:30,Not ranked,South Fork Republican River near Benkelman, Nebr. 06827000: Flow=2.92cfs,Stage=3.08ft,2017-07-26 20:45,Not ranked,SF REPUBLICAN R NR CO-KS ST LINE, KS 06823500: Flow=0.00cfs,Stage=0.48ft,Floodstage=11ft,2017-07-26 19:45,Not ranked,Buffalo Creek near Haigler, Nebr. 06820475: Stage=5.45ft,Floodstage=20ft,2017-07-26 20:00,Not ranked,MISSOURI R AT LEAVENWORTH, KS 06818300: Stage=10.59ft,Floodstage=22ft,2017-07-26 07:00,Not ranked,MISSOURI R AT ATCHISON, KS Go to WaterWatch (offsite) for a larger map with additional options
USGS Home Water Resources Biology Geography Geology Geospatial

Accessibility FOIA Privacy Policies and Notices

Take Pride in America logo USA.gov logo U.S. Department of the Interior | U.S. Geological Survey
Page Contact Information: GS-W-KS_info@usgs.gov
Page Last Modified: 2017-06-26 11:23:21 CDT